Flag for U.S.A. Weather past 2 weeks in Lexington, North Carolina, U.S.A.

Now
76 °F

Scattered clouds.


Feels Like: 78 °F
Forecast: 60 / 74 °F
Wind: No wind

Location: Davidson County Airport

Current Time: Sep 18, 2014 at 6:04:21 PM

Latest Report: Sep 18, 2014 at 5:15 PM


Visibility: 10 mi

Pressure: 29.98 "Hg

Humidity: 60%

Dew point: 62 °F

Location of LexingtonLocation

Historic Weather in Lexington — Graph

°F

Lexington temperature yesterday

Maximum temperature yesterday: 76 °F (at 5:15 PM)
Minimum temperature yesterday: 61 °F (at 6:55 AM)
Average temperature yesterday: 68 °F

Past Weeks' High & Low Weather Summary

 TemperatureHumidityPressure
High89 °F (Sep 3, 4:55 PM)100% (Sep 4, 12:15 AM)30.30 "Hg (Sep 4, 12:15 AM)
Low59 °F (Sep 18, 6:30 AM)48% (Sep 3, 4:55 PM)29.92 "Hg (Sep 17, 5:15 PM)
Average71 °F85%30.09 "Hg
* Reported Sep 3 4:15 PM — Sep 18 4:55 PM, Lexington, Weather by CustomWeather, © 2014

Note: Actual official high and low records may vary slightly from our data, if they occured in-between our weather recording intervals... More about our weather records

Advertising

Lexington weather history for previous 24 hours

 ConditionsComfort  
Time TempWeatherWind HumidityBarometerVisibility
4:55 PM
Sep 18
76 °FScattered clouds.No wind66%29.98 "Hg10 mi
4:35 PM77 °FSunny.No wind64%29.98 "Hg10 mi
4:15 PM76 °FBroken clouds.No wind61%29.98 "Hg10 mi
3:55 PM77 °FOvercast.No wind58%29.98 "Hg10 mi
3:15 PM77 °FScattered clouds.No wind54%29.98 "Hg10 mi
2:55 PM78 °FSunny.No wind55%29.99 "Hg10 mi
2:35 PM74 °FSunny.No wind70%29.99 "Hg10 mi
2:15 PM76 °FSunny.No wind59%30.00 "Hg10 mi
1:55 PM76 °FSunny.No wind64%30.01 "Hg10 mi
1:35 PM73 °FSunny.No wind70%30.01 "Hg10 mi
1:15 PM74 °FScattered clouds.No wind70%30.01 "Hg10 mi
12:55 PM74 °FPartly sunny.No wind73%30.02 "Hg10 mi
12:35 PM71 °FPartly sunny.No wind81%30.03 "Hg10 mi
12:10 PM67 °FMore clouds than sun.No wind92%30.03 "Hg7 mi
11:50 AM66 °FDrizzle. More clouds than sun.No wind95%30.03 "Hg5 mi
11:15 AM66 °FDrizzle. Mostly cloudy.No wind91%30.04 "Hg7 mi
10:55 AM67 °FLight rain. Mostly cloudy.No wind90%30.04 "Hg10 mi
10:35 AM68 °FMostly cloudy.No wind85%30.03 "Hg10 mi
10:15 AM68 °FBroken clouds.No wind84%30.03 "Hg10 mi
9:55 AM67 °FMostly cloudy.No wind86%30.03 "Hg10 mi
9:35 AM67 °FPartly sunny.No wind87%30.02 "Hg10 mi
9:10 AM64 °FFog.No wind94%30.00 "Hg4 mi
8:55 AM63 °FFog.No wind96%30.00 "Hg3 mi
8:35 AM63 °FFog.No wind97%30.00 "Hg2 mi
8:15 AM62 °FFog.No wind98%30.00 "Hg2 mi
7:55 AM61 °FFog.No wind98%30.00 "Hg3 mi
7:35 AM59 °FFog.No wind98%29.99 "Hg1 mi
7:15 AM59 °FFog.No wind99%29.98 "Hg2 mi
6:55 AM59 °FFog.No wind99%29.98 "Hg1 mi
6:30 AM59 °FFog.No wind98%29.97 "Hg1 mi
6:15 AM60 °FFog.No wind98%29.97 "Hg1 mi
5:55 AM60 °FFog.No wind98%29.97 "Hg2 mi
5:15 AM61 °FFog.No wind97%29.96 "Hg2 mi
4:55 AM61 °FFog.No wind97%29.95 "Hg2 mi
4:35 AM61 °FFog.No wind98%29.95 "Hg2 mi
4:15 AM62 °FFog.No wind97%29.95 "Hg3 mi
3:55 AM62 °FFog.No wind98%29.95 "Hg2 mi
3:35 AM62 °FFog.No wind98%29.95 "Hg2 mi
3:15 AM61 °FFog.No wind97%29.95 "Hg2 mi
2:55 AM62 °FFog.No wind98%29.95 "Hg2 mi
2:35 AM62 °FFog.No wind96%29.95 "Hg4 mi
2:15 AM62 °FFog.No wind96%29.96 "Hg4 mi
1:55 AM62 °FFog.No wind98%29.96 "Hg2 mi
1:35 AM61 °FFog.No wind98%29.96 "Hg2 mi
1:15 AM61 °FFog.No wind97%29.96 "Hg2 mi
12:55 AM61 °FFog.No wind97%29.96 "Hg3 mi
12:35 AM61 °FFog.No wind96%29.96 "Hg3 mi
12:15 AM62 °FFog.No wind96%29.96 "Hg4 mi
11:55 PM
Sep 17
63 °FFog.No wind95%29.97 "Hg5 mi
11:15 PM64 °FClear.No wind92%29.97 "Hg7 mi
10:55 PM64 °FFog.No wind94%29.96 "Hg5 mi
10:35 PM64 °FPassing clouds.No wind93%29.97 "Hg7 mi
10:15 PM65 °FPassing clouds.No wind89%29.97 "Hg10 mi
9:55 PM65 °FPassing clouds.No wind91%29.97 "Hg10 mi
9:15 PM66 °FClear.No wind91%29.96 "Hg10 mi
8:55 PM65 °FClear.No wind92%29.95 "Hg10 mi
8:15 PM67 °FBroken clouds.No wind88%29.95 "Hg10 mi
7:55 PM66 °FSunny.No wind90%29.95 "Hg10 mi
7:35 PM66 °FSunny.No wind89%29.94 "Hg10 mi
7:15 PM68 °FSunny.No wind86%29.94 "Hg10 mi
6:55 PM68 °FSunny.No wind89%29.93 "Hg10 mi
6:35 PM69 °FScattered clouds.No wind86%29.94 "Hg10 mi
6:15 PM71 °FBroken clouds.No wind79%29.93 "Hg10 mi
Weather by CustomWeather, © 2014

See weather overviewHow to use our weather pages